STARLINK-32312, 61711

Orbit data source: Space-Track

STARLINK-32312, 61711 is a payload satellite owned by SpaceX/Seattle (US) in LEO that was launched on Wed, 30 Oct 2024 UTC via an FALCON 9 launch vehicle from the Air Force Eastern Test Range (AFETR). Payload-class satellites include a variety of spacecraft equipped with specific instruments for various scientific and technological missions. These include communications satellites like Starlink; space stations such as the ISS; scientific satellites like the Hubble; Earth observation satellites from companies like Planet Labs, Umbra, and HawkEye 360; GPS; miniature CubeSats for education and research; and military/defense satellites.

Loading next visibility...
Identifier
61711, 2024-196E
Orbit
LEO
Last TLE update
1 day ago
Origin
Manufacturer
SpaceX/Seattle
Mission
Operational Commercial Communications
Bus & Motor
STARLINK V2M, Unknown motor
Mass
730 kg wet, ~700 kg dry
Launch date (UTC)
2024-10-30 (8 months ago)
Launch vehicle
FALCON 9
Launch site
Air Force Eastern Test Range (AFETR)
Object type
Payload
Rocket body
Debris
Shape & HBR
Box + 2 Pan, 29 m
Radar Cross Section
36.964 m², Large (>1 m²)

Expand to show TLE details & history

TLE from 1 day ago
0 STARLINK-32312
1 61711U 24196E   25166.57439142 -.00000411  00000-0 -17423-5 0  9993
2 61711  53.1605 261.8071 0001206  98.4047 261.7090 15.30187936 36269
Epoch: 2025-06-15T13:47Z
TLE epoch observation values (Epoch: 2025-06-15T13:47:07.418Z)
Latitude
-0.00007°
Longitude
150.92861°
Altitude
476.27 km
Speed
7.629 km/s
True Right ascension
17h 27m 13s
True Declination
0° 00' 00"
Sunlit
Object was in full shadow at epoch
Visualization orbit readout
Latitude
39.32669°
Longitude
-177.26408°
Altitude
478.169 km
Speed
7.632 km/s
Apparent Right ascension
19h 02m 51s
Apparent Declination
1° 25' 56"
Sunlit
Object is in full shadow
Visualization observer readout
Local Sidereal Time
06:28:35
Azimuth
347.161° N
Elevation
-47.915°
Doppler factor
1
Orbital elements
Apogee altitude
476.334 km
Perigee altitude
474.681 km
Semi-major axis
6,853.644 km
Eccentricity
0.00012
Inclination
53.1605°
RAAN
261.8071°
Arg. of periapsis
98.4047°
True anomaly
Unknown
Mean anomaly
261.709°
Eccentric anomaly
Unknown
Mean motion
3.82526 °/min
Orbital period
94.11 mins
BSTAR
-0.0000017423
Loading maneuver chart data...
Loading SW <> Apogee altitude chart data...
Loading historical data...
Loading historical data...
Loading historical data...
Loading historical data...
Loading historical data...
Loading historical data...
Loading historical data...

STARLINK-32312 Visibility forecast

Observer location: undefined°, undefined°

Span
Click to sort rows by Start time (UTC) header in descending order
Start Az.
Max El. time (UTC)
Max El. Az.
Max El.
End time (UTC)
End Az.
6 mins2025-06-17 08:16:44.380Z206.506° SW2025-06-17 08:19:44.380Z118.334° SE36.537°2025-06-17 08:22:44.380Z60.926° ENE
4 mins2025-06-17 09:55:44.380Z290.779° WNW2025-06-17 09:57:44.380Z338.207° N22.721°2025-06-17 09:59:44.380Z20.209° NNE
5 mins2025-06-17 14:52:44.380Z336.796° NNW2025-06-17 14:54:44.380Z49.843° ENE33.987°2025-06-17 14:57:44.380Z106.772° ESE
4 mins2025-06-17 16:30:44.380Z262.228° W2025-06-17 16:31:44.380Z240.485° WSW20.149°2025-06-17 16:34:44.380Z181.386° SSW
|